Location: Great Falls
(47.5000°N, 111.3000°W)
Time: 19:28:08
(UTC-06:00)

OTV 5 (USA 277) - Visible Passes

Search period start: 17 June 2018 00:00
Search period end: 27 June 2018 00:00
Orbit: 313 x 320 km, 54.5° (Epoch: 16 June)

Date Brightness Start Highest point End Pass type
(mag) Time Alt. Az. Time Alt. Az. Time Alt. Az.
17 Jun ? 01:09:23 10° NW 01:11:25 19° N 01:13:27 10° NE visible
17 Jun ? 02:44:04 10° NW 02:46:22 24° NNE 02:48:41 10° ENE visible
17 Jun ? 04:18:11 10° WNW 04:20:55 71° SSW 04:23:37 10° SE visible
17 Jun ? 22:14:08 10° SW 22:16:46 54° SE 22:19:26 10° ENE visible
17 Jun ? 23:48:52 10° WNW 23:51:14 26° NNW 23:53:36 10° NE visible
18 Jun ? 01:24:09 10° NW 01:26:10 18° N 01:28:10 10° NE visible
18 Jun ? 02:58:26 10° NW 03:01:00 37° NNE 03:03:35 10° E visible
18 Jun ? 04:32:51 10° WNW 04:35:16 28° SW 04:37:40 10° SSE visible
18 Jun ? 22:28:33 10° WSW 22:31:13 63° NNW 22:33:55 10° NE visible
19 Jun ? 00:03:49 10° WNW 00:05:55 20° N 00:08:02 10° NE visible
19 Jun ? 01:38:43 10° NW 01:40:54 21° NNE 01:43:04 10° ENE visible
19 Jun ? 03:12:49 10° NW 03:15:33 75° NNE 03:18:16 10° ESE visible
19 Jun ? 22:43:17 10° W 22:45:47 33° NNW 22:48:17 10° NE visible
20 Jun ? 00:18:40 10° NW 00:20:39 18° N 00:22:38 10° NE visible
20 Jun ? 01:53:07 10° NW 01:55:34 29° NNE 01:58:00 10° E visible
20 Jun ? 03:27:21 10° WNW 03:29:58 44° SW 03:31:56 15° SSE visible
20 Jun ? 22:58:12 10° WNW 23:00:25 22° NNW 23:02:40 10° NE visible
21 Jun ? 00:33:19 10° NW 00:35:23 19° N 00:37:27 10° ENE visible
21 Jun ? 02:07:29 10° NW 02:10:09 50° NNE 02:11:19 27° E visible
21 Jun ? 23:13:07 10° NW 23:15:09 19° N 23:17:10 10° NE visible
22 Jun ? 00:47:48 10° NW 00:50:06 24° NNE 00:52:24 10° ENE visible
22 Jun ? 02:21:55 10° WNW 02:23:37 33° WNW 02:23:37 33° WNW visible
22 Jun ? 23:27:53 10° NW 23:29:53 18° N 23:31:53 10° NE visible
23 Jun ? 01:02:11 10° NW 01:04:44 36° NNE 01:05:40 27° ENE visible
23 Jun ? 22:07:31 10° WNW 22:09:39 20° N 22:11:45 10° NE visible
23 Jun ? 23:42:27 10° NW 23:44:37 21° N 23:46:46 10° ENE visible
24 Jun ? 01:16:33 10° NW 01:18:46 53° NW 01:18:46 53° NW visible
24 Jun ? 22:22:24 10° NW 22:24:23 18° N 22:26:21 10° NE visible
24 Jun ? 23:56:51 10° NW 23:59:18 28° NNE 00:01:12 14° ENE visible
25 Jun ? 01:31:04 10° WNW 01:32:02 19° WNW 01:32:02 19° WNW visible
25 Jun ? 22:37:03 10° NW 22:39:07 19° N 22:41:11 10° NE visible
26 Jun ? 00:11:13 10° NW 00:13:53 49° NNE 00:14:33 37° ENE visible
26 Jun ? 22:51:32 10° NW 22:53:49 24° NNE 22:56:06 10° ENE visible
